Spokane, WA
on Saturday, December 22, 2012

Saturday
Previous Day Next Day
Daily Summary
 ActualAverageRecord
Temperature
Mean Temperature °F 26°F  
Max Temperature 41°F 31°F 54°F (1933)
Min Temperature 31°F 22°F -15°F (1983)
Degree Days
Heating Degree Days 29 39  
Month to date heating degree days 691 823  
Since 1 July heating degree days 2076 2490  
Cooling Degree Days 0 0  
Month to date cooling degree days 0 0  
Year to date cooling degree days 535 450  
Moisture
Dew Point 33°F   
Average Humidity 90    
Maximum Humidity 100    
Minimum Humidity 79    
Precipitation
Precipitation 0.07 in 0.08 in 1.12 in (1964)
Month to date precipitation 2.06 1.70  
Year to date precipitation 20.80 15.96  
Snow
Snow 0.00 in 0.60 in 3.80 in (2008)
Month to date snowfall 12.6 9.9  
Since 1 July snowfall 18.5 17.4  
Snow Depth 1.00 in   
Wind
Wind Speed 8 mph   
Max Wind Speed 20 mph   
Max Gust Speed 26 mph   
Visibility 10 miles   
Events Rain   

Key: T is trace of precipitation, MM is missing value
Source: NWS Daily Summary
Time(PST)TemperatureDew PointHumidity Pressure Visibility Wind DirectionWind SpeedGust SpeedPrecipitationEvents Conditions
12:53 AM 35.6°F 33.8°F 93% 29.75 in 10.0 miles Calm Calm - N/A   Overcast
1:53 AM 37.0°F 33.1°F 86% 29.79 in 10.0 miles ESE 8.1 mph - N/A   Mostly Cloudy
2:53 AM 35.1°F 32.0°F 89% 29.77 in 10.0 miles ESE 4.6 mph - N/A   Mostly Cloudy
3:53 AM 32.0°F 32.0°F 100% 29.79 in 10.0 miles Calm Calm - N/A   Overcast
4:53 AM 35.1°F 32.0°F 89% 29.76 in 10.0 miles ENE 5.8 mph - N/A   Overcast
5:53 AM 35.1°F 32.0°F 89% 29.73 in 10.0 miles ENE 9.2 mph - N/A   Overcast
6:53 AM 34.0°F 32.0°F 92% 29.73 in 10.0 miles ENE 9.2 mph - N/A   Mostly Cloudy
7:53 AM 34.0°F 32.0°F 92% 29.71 in 10.0 miles East 5.8 mph - 0.00 in Rain Light Rain
8:53 AM 34.0°F 32.0°F 92% 29.68 in 10.0 miles ENE 10.4 mph - 0.00 in   Overcast
9:53 AM 37.0°F 32.0°F 82% 29.67 in 10.0 miles ENE 8.1 mph - N/A   Overcast
10:53 AM 37.0°F 33.1°F 86% 29.66 in 10.0 miles Calm Calm - 0.00 in Rain Light Rain
11:53 AM 39.9°F 33.1°F 77% 29.63 in 10.0 miles SSE 15.0 mph - 0.01 in Rain Light Rain
12:28 PM 39.2°F 33.8°F 81% 29.58 in 7.0 miles SSE 16.1 mph 26.5 mph 0.01 in Rain Light Rain
12:53 PM 37.9°F 34.0°F 86% 29.62 in 9.0 miles SSE 12.7 mph - 0.02 in Rain Light Rain
1:53 PM 37.0°F 35.1°F 93% 29.62 in 10.0 miles SSE 11.5 mph - 0.01 in Rain Light Rain
2:42 PM 37.4°F 35.6°F 93% 29.59 in 10.0 miles SSE 8.1 mph - 0.01 in Rain Light Rain
2:53 PM 37.0°F 35.1°F 93% 29.64 in 10.0 miles South 10.4 mph - 0.01 in Rain Light Rain
3:25 PM 35.6°F 33.8°F 93% 29.61 in 9.0 miles South 17.3 mph - 0.01 in Rain Light Rain
3:53 PM 36.0°F 34.0°F 93% 29.67 in 10.0 miles SSW 13.8 mph - 0.02 in   Overcast
4:53 PM 36.0°F 34.0°F 93% 29.69 in 10.0 miles South 6.9 mph - 0.00 in   Overcast
5:53 PM 35.1°F 34.0°F 96% 29.71 in 10.0 miles SSE 4.6 mph - 0.00 in   Overcast
6:53 PM 35.1°F 34.0°F 96% 29.71 in 10.0 miles SSE 6.9 mph - N/A   Overcast
7:53 PM 34.0°F 33.1°F 96% 29.75 in 10.0 miles SSE 8.1 mph - N/A   Mostly Cloudy
8:53 PM 33.1°F 32.0°F 96% 29.77 in 10.0 miles SSE 8.1 mph - N/A   Overcast
9:53 PM 34.0°F 30.9°F 89% 29.78 in 10.0 miles South 9.2 mph - N/A   Mostly Cloudy
10:53 PM 32.0°F 30.0°F 92% 29.81 in 10.0 miles South 6.9 mph - N/A   Scattered Clouds
11:53 PM 32.0°F 30.0°F 92% 29.83 in 10.0 miles SSE 8.1 mph - N/A   Scattered Clouds
Moon Phase
Dec. 22 Dec. 28 Jan. 04 Jan. 11 Jan. 18
Sunrise:07:36 AM (PST) Moon Rise:12:33 PM (PST)12/22
Sunset:04:01 PM (PST) Moon Set:02:12 AM (PST)12/22

Copyright © 2014 The Weather Underground, Inc.